QPF
0.00 0.00 0.00 0.00 0.00 0.00 0.00 0.00 0.00 0.00 0.00 0.00 0.00 0.00 0.00 0.00 0.00 0.00 0.00 0.00 0.00 0.00 0.00 0.00 0.00 0.00 0.00 0.00 0.00 0.00 0.00 0.00 0.00 0.00 0.00 0.00 0.00 0.00 0.00 0.00 0.00 0.00 0.00 0.00 0.00
0.00 0.00 0.00 0.00 0.00 0.00 0.00 0.00 0.00 0.00 0.00 0.00 0.00 0.00 0.00 0.00 0.00 0.00 0.00 0.00 0.00 0.00 0.00 0.00 0.00 0.00 0.00 0.00 0.00 0.00 0.00 0.00 0.00 0.00 0.00 0.00 0.00 0.00 0.00 0.00 0.00 0.00 0.00 0.00 0.00
0.00 0.00 0.00 0.00 0.00 0.00 0.00 0.00 0.00 0.00 0.00 0.00 0.00 0.00 0.00 0.00 0.00 0.00 0.00 0.00 0.00 0.00 0.00 0.00 0.00 0.00 0.00 0.00 0.00 0.00 0.00 0.00 0.00 0.00 0.00 0.00 0.00 0.00 0.00 0.00 0.00 0.00 0.00 0.00 0.00
0.00 0.00 0.00 0.00 0.00 0.00 0.00 0.00 0.00 0.00 0.00 0.00 0.00 0.00 0.00 0.00 0.00 0.00 0.00 0.00 0.00 0.00 0.00 0.00 0.00 0.00 0.00 0.00 0.00 0.00 0.00 0.00 0.00 0.00 0.00 0.00 0.00 0.00 0.00 0.00 0.00 0.00 0.00 0.00 0.00
0.00 0.00 0.00 0.00 0.00 0.00 0.00 0.00 0.00 0.00 0.00 0.00 0.00 0.00 0.00 0.00 0.00 0.00 0.00 0.00 0.00 0.00 0.00 0.00 0.00 0.00 0.00 0.00 0.00 0.00 0.00 0.00 0.00 0.00 0.00 0.00 0.00 0.00 0.00 0.00 0.00 0.00 0.00 0.00 0.00
0.00 0.00 0.00 0.00 0.00 0.00 0.00 0.00 0.00 0.00 0.00 0.00 0.00 0.00 0.00 0.00 0.00 0.00 0.00 0.00 0.00 0.00 0.00 0.00 0.00 0.00 0.00 0.00 0.00 0.00 0.00 0.00 0.00 0.00 0.00 0.00 0.00 0.00 0.00 0.00 0.00 0.00 0.00 0.00 0.00
0.00 0.00 0.00 0.00 0.00 0.00 0.00 0.00 0.00 0.00 0.00 0.00 0.00 0.00 0.00 0.00 0.00 0.00 0.00 0.00 0.00 0.00 0.00 0.00 0.00 0.00 0.00 0.00 0.00 0.00 0.00 0.00 0.00 0.00 0.00 0.00 0.00 0.00 0.00 0.00 0.00 0.00 0.00 0.00 0.00
0.00 0.00 0.00 0.00 0.00 0.00 0.00 0.00 0.00 0.00 0.00 0.00 0.00 0.00 0.00 0.00 0.00 0.00 0.00 0.00 0.00 0.00 0.00 0.00 0.00 0.00 0.00 0.00 0.00 0.00 0.00 0.00 0.00 0.00 0.00 0.00 0.00 0.00 0.00 0.00 0.00 0.00 0.00 0.00 0.00
0.00 0.00 0.00 0.00 0.00 0.00 0.00 0.00 0.00 0.00 0.00 0.00 0.00 0.00 0.00 0.00 0.00 0.00 0.00 0.00 0.00 0.00 0.00 0.00 0.00 0.00 0.00 0.00 0.00 0.00 0.00 0.00 0.00 0.00 0.00 0.00 0.00 0.00 0.00 0.00 0.00 0.00 0.00 0.00 0.00
0.00 0.00 0.00 0.00 0.00 0.00 0.00 0.00 0.00 0.00 0.00 0.00 0.00 0.00 0.00 0.00 0.00 0.00 0.00 0.00 0.00 0.00 0.00 0.00 0.00 0.00 0.00 0.00 0.00 0.00 0.00 0.00 0.00 0.00 0.00 0.00 0.00 0.00 0.00 0.00 0.00 0.00 0.00 0.00 0.00
0.00 0.00 0.00 0.00 0.00 0.00 0.00 0.00 0.00 0.00 0.00 0.00 0.00 0.00 0.00 0.00 0.00 0.00 0.00 0.00 0.00 0.00 0.00 0.00 0.00 0.00 0.00 0.00 0.00 0.00 0.00 0.00 0.00 0.00 0.00 0.00 0.00 0.00 0.00 0.00 0.00 0.00 0.00 0.00 0.00
0.00 0.00 0.00 0.00 0.00 0.00 0.00 0.00 0.00 0.00 0.00 0.00 0.00 0.00 0.00 0.00 0.00 0.00 0.00 0.00 0.00 0.00 0.00 0.00 0.00 0.00 0.00 0.00 0.00 0.00 0.00 0.00 0.00 0.00 0.00 0.00 0.00 0.00 0.00 0.00 0.00 0.00 0.00 0.00 0.00
0.00 0.00 0.00 0.00 0.00 0.00 0.00 0.00 0.00 0.00 0.00 0.00 0.00 0.00 0.00 0.00 0.00 0.00 0.00 0.00 0.00 0.00 0.00 0.00 0.00 0.00 0.00 0.00 0.00 0.00 0.00 0.00 0.00 0.00 0.00 0.00 0.00 0.00 0.00 0.00 0.00 0.00 0.00 0.00 0.00
0.00 0.00 0.00 0.00 0.00 0.00 0.00 0.00 0.00 0.00 0.00 0.00 0.00 0.00 0.00 0.00 0.00 0.00 0.00 0.00 0.00 0.00 0.00 0.00 0.00 0.00 0.00 0.00 0.00 0.00 0.00 0.00 0.00 0.00 0.00 0.00 0.00 0.00 0.00 0.00 0.00 0.00 0.00 0.00 0.00
0.00 0.00 0.00 0.00 0.00 0.00 0.00 0.00 0.00 0.00 0.00 0.00 0.00 0.00 0.00 0.00 0.00 0.00 0.00 0.00 0.00 0.00 0.00 0.00 0.00 0.00 0.00 0.00 0.00 0.00 0.00 0.00 0.00 0.00 0.00 0.00 0.00 0.00 0.00 0.00 0.00 0.00 0.00 0.00 0.00
0.00 0.00 0.00 0.00 0.00 0.00 0.00 0.00 0.00 0.00 0.00 0.00 0.00 0.00 0.00 0.00 0.00 0.00 0.00 0.00 0.00 0.00 0.00 0.00 0.00 0.00 0.00 0.00 0.00 0.00 0.00 0.00 0.00 0.00 0.00 0.00 0.00 0.00 0.00 0.00 0.00 0.00 0.00 0.00 0.00
0.00 0.00 0.00 0.00 0.00 0.00 0.00 0.00 0.00 0.00 0.00 0.00 0.00 0.00 0.00 0.00 0.00 0.00 0.00 0.00 0.00 0.00 0.00 0.00 0.00 0.00 0.00 0.00 0.00 0.00 0.00 0.00 0.00 0.00 0.00 0.00 0.00 0.00 0.00 0.00 0.00 0.00 0.00 0.00 0.00
0.00 0.00 0.00 0.00 0.00 0.00 0.00 0.00 0.00 0.00 0.00 0.00 0.00 0.00 0.00 0.00 0.00 0.00 0.00 0.00 0.00 0.00 0.00 0.00 0.00 0.00 0.00 0.00 0.00 0.00 0.00 0.00 0.00 0.00 0.00 0.00 0.00 0.00 0.00 0.00 0.00 0.00 0.00 0.00 0.00
0.01 0.00 0.00 0.00 0.00 0.00 0.00 0.00 0.00 0.00 0.00 0.00 0.00 0.00 0.00 0.00 0.00 0.00 0.00 0.00 0.00 0.00 0.00 0.00 0.00 0.00 0.00 0.00 0.00 0.00 0.00 0.00 0.00 0.00 0.00 0.00 0.00 0.00 0.00 0.00 0.00 0.00 0.00 0.00 0.00
0.00 0.00 0.00 0.00 0.00 0.00 0.00 0.00 0.00 0.00 0.00 0.00 0.00 0.00 0.00 0.00 0.00 0.00 0.00 0.00 0.00 0.00 0.00 0.00 0.00 0.00 0.00 0.00 0.00 0.00 0.00 0.00 0.00 0.00 0.00 0.00 0.00 0.00 0.00 0.00 0.00 0.00 0.00 0.00 0.00
0.00 0.00 0.00 0.00 0.00 0.00 0.00 0.00 0.00 0.00 0.00 0.00 0.00 0.00 0.00 0.00 0.00 0.00 0.00 0.00 0.00 0.00 0.00 0.00 0.00 0.00 0.00 0.00 0.00 0.00 0.00 0.00 0.00 0.00 0.00 0.00 0.00 0.00 0.00 0.00 0.00 0.00 0.00 0.00 0.00
0.00 0.00 0.00 0.00 0.00 0.00 0.00 0.00 0.00 0.00 0.00 0.00 0.00 0.00 0.00 0.00 0.00 0.00 0.00 0.00 0.00 0.00 0.00 0.00 0.00 0.00 0.00 0.00 0.00 0.00 0.00 0.00 0.00 0.00 0.00 0.00 0.00 0.00 0.00 0.00 0.00 0.00 0.00 0.00 0.00
0.00 0.00 0.00 0.00 0.00 0.00 0.00 0.00 0.00 0.00 0.00 0.00 0.00 0.00 0.00 0.00 0.00 0.00 0.00 0.00 0.00 0.00 0.00 0.00 0.00 0.00 0.00 0.00 0.00 0.00 0.00 0.00 0.00 0.00 0.00 0.00 0.00 0.00 0.00 0.00 0.00 0.00 0.00 0.00 0.00
0.00 0.00 0.00 0.00 0.00 0.00 0.00 0.00 0.00 0.00 0.00 0.00 0.00 0.00 0.00 0.00 0.00 0.00 0.00 0.00 0.00 0.00 0.00 0.00 0.00 0.00 0.00 0.00 0.00 0.00 0.00 0.00 0.00 0.00 0.00 0.00 0.00 0.00 0.00 0.00 0.00 0.00 0.00 0.00 0.00
0.00 0.00 0.00 0.00 0.00 0.00 0.00 0.00 0.00 0.00 0.00 0.00 0.00 0.00 0.00 0.00 0.00 0.00 0.00 0.00 0.00 0.00 0.00 0.00 0.00 0.00 0.00 0.00 0.00 0.00 0.00 0.00 0.00 0.00 0.00 0.00 0.00 0.00 0.00 0.00 0.00 0.00 0.00 0.00 0.00
0.00 0.00 0.00 0.00 0.00 0.00 0.00 0.00 0.00 0.00 0.00 0.00 0.00 0.00 0.00 0.00 0.00 0.00 0.00 0.00 0.00 0.00 0.00 0.00 0.00 0.00 0.00 0.00 0.00 0.00 0.00 0.00 0.00 0.00 0.00 0.00 0.00 0.00 0.00 0.00 0.00 0.00 0.00 0.00 0.00
0.00 0.00 0.00 0.00 0.00 0.00 0.00 0.00 0.00 0.00 0.00 0.00 0.00 0.00 0.00 0.00 0.00 0.00 0.00 0.00 0.00 0.00 0.00 0.00 0.00 0.00 0.00 0.00 0.00 0.00 0.00 0.00 0.00 0.00 0.00 0.00 0.00 0.00 0.00 0.00 0.00 0.00 0.00 0.00 0.00
MSLP
1019.72 1019.79 1019.60 1019.41 1019.21 1019.08 1018.84 1018.56 1018.31 1018.10 1017.86 1017.57 1017.17 1016.93 1016.63 1016.23 1015.72 1015.71 1016.51 1016.88 1016.33 1015.78 1015.51 1015.51 1015.44 1015.75 1016.12 1017.64 1018.30 1018.67 1020.39 1022.59 1023.00 1023.20 1023.29 1023.36 1023.46 1023.43 1023.48 1023.41 1023.11 1022.80 1022.55 1021.56 1021.06
1019.61 1019.60 1019.65 1019.46 1019.23 1019.04 1018.85 1018.56 1018.27 1018.07 1017.83 1017.53 1017.24 1016.98 1016.70 1016.40 1016.25 1016.42 1016.70 1016.29 1015.87 1015.67 1015.58 1015.64 1016.03 1016.20 1017.58 1018.68 1019.26 1019.82 1021.51 1022.77 1023.00 1023.01 1023.15 1023.32 1023.54 1023.67 1023.60 1023.53 1023.07 1022.77 1022.12 1021.63 1021.37
1019.40 1019.52 1019.55 1019.49 1019.30 1018.97 1018.79 1018.55 1018.22 1017.94 1017.79 1017.50 1017.21 1016.89 1016.64 1016.41 1016.54 1016.88 1016.52 1016.09 1015.64 1015.51 1015.81 1015.83 1016.24 1016.81 1018.59 1019.54 1020.51 1021.14 1022.33 1022.86 1023.06 1023.09 1023.12 1023.39 1023.53 1023.65 1023.64 1023.53 1023.42 1023.14 1022.00 1021.29 1021.08
1019.27 1019.35 1019.36 1019.31 1019.29 1018.98 1018.68 1018.46 1018.19 1017.88 1017.66 1017.47 1017.20 1016.75 1016.42 1016.48 1017.12 1016.86 1016.51 1016.04 1015.51 1015.53 1015.80 1016.09 1016.61 1017.92 1019.58 1020.57 1021.03 1021.92 1022.89 1022.83 1023.07 1023.08 1023.11 1023.31 1023.42 1023.55 1023.66 1023.56 1023.50 1023.03 1022.57 1021.71 1021.10
1019.07 1019.14 1019.19 1019.13 1019.15 1019.01 1018.65 1018.38 1018.06 1017.90 1017.58 1017.40 1017.15 1016.82 1016.43 1016.73 1017.38 1016.89 1016.58 1016.05 1015.62 1015.68 1016.40 1016.57 1017.15 1018.46 1020.04 1020.84 1021.31 1022.08 1022.89 1022.95 1023.04 1022.97 1023.03 1023.15 1023.35 1023.57 1023.52 1023.53 1023.35 1022.88 1022.23 1021.73 1021.25
1018.73 1018.87 1019.07 1019.08 1018.99 1018.90 1018.68 1018.31 1017.93 1017.83 1017.57 1017.31 1017.06 1016.76 1016.70 1017.06 1017.26 1017.17 1016.77 1016.30 1016.11 1016.07 1016.85 1016.87 1017.28 1018.08 1019.85 1021.24 1021.63 1022.39 1022.77 1023.03 1022.96 1022.80 1022.77 1022.97 1023.25 1023.46 1023.58 1023.41 1023.14 1022.79 1022.25 1021.69 1021.21
1018.32 1018.62 1018.77 1018.91 1018.89 1018.77 1018.51 1018.23 1017.89 1017.68 1017.55 1017.24 1017.03 1017.03 1016.89 1017.31 1017.19 1017.08 1016.88 1016.71 1016.57 1016.46 1017.04 1017.29 1017.39 1018.01 1019.86 1021.54 1022.26 1022.56 1023.22 1023.18 1023.09 1022.86 1022.86 1022.91 1023.33 1023.44 1023.75 1023.39 1023.18 1022.96 1022.36 1021.73 1021.16
1018.02 1018.33 1018.41 1018.59 1018.70 1018.57 1018.41 1018.05 1017.77 1017.54 1017.26 1017.19 1017.00 1016.99 1017.20 1017.00 1017.05 1017.04 1017.12 1016.95 1016.81 1016.61 1017.11 1017.55 1017.71 1018.64 1020.24 1021.66 1022.71 1023.24 1023.64 1023.73 1023.33 1023.02 1022.83 1022.94 1023.14 1023.16 1023.53 1023.60 1023.42 1023.19 1022.79 1021.96 1021.19
1017.72 1017.83 1018.13 1018.26 1018.45 1018.44 1018.19 1017.84 1017.54 1017.26 1016.95 1017.08 1017.17 1016.98 1017.23 1017.05 1017.13 1017.35 1017.39 1017.36 1017.16 1017.14 1017.45 1017.68 1018.32 1020.31 1021.30 1022.37 1023.87 1024.43 1024.42 1024.39 1023.85 1023.48 1023.34 1023.31 1023.14 1022.94 1023.34 1023.71 1023.74 1023.57 1023.20 1022.61 1021.66
1017.33 1017.51 1017.79 1018.02 1018.22 1018.18 1017.91 1017.50 1017.17 1017.08 1016.83 1017.06 1017.27 1017.51 1017.39 1017.56 1017.37 1017.46 1017.50 1017.39 1017.29 1017.50 1017.92 1018.58 1019.80 1021.20 1022.51 1023.14 1024.23 1024.64 1024.95 1024.81 1024.23 1023.93 1023.70 1023.61 1023.30 1023.11 1023.01 1023.52 1023.81 1023.79 1023.52 1023.01 1022.25
1016.91 1017.28 1017.40 1017.76 1017.99 1017.93 1017.85 1017.53 1017.83 1017.78 1017.32 1017.55 1017.92 1017.61 1017.66 1017.62 1017.44 1017.55 1017.74 1017.58 1017.54 1018.11 1019.27 1020.11 1021.23 1022.37 1023.30 1023.45 1023.84 1024.31 1024.66 1025.04 1024.54 1024.29 1024.47 1024.32 1023.93 1023.13 1022.77 1023.22 1023.54 1023.74 1023.64 1023.36 1022.73
1016.41 1016.84 1017.16 1017.60 1017.88 1017.79 1017.88 1017.94 1017.58 1017.76 1017.89 1017.70 1017.83 1017.80 1017.91 1017.69 1017.79 1017.67 1017.71 1018.03 1018.29 1019.24 1020.06 1021.06 1022.43 1023.20 1023.31 1023.57 1023.80 1024.39 1024.88 1025.11 1024.82 1024.54 1024.72 1024.47 1023.85 1022.95 1022.73 1023.07 1023.44 1023.68 1023.71 1023.70 1023.09
1015.44 1016.43 1016.87 1017.40 1017.81 1017.88 1017.82 1017.48 1017.54 1017.21 1017.99 1017.82 1017.77 1017.76 1018.01 1017.84 1018.09 1018.12 1017.95 1018.12 1019.15 1019.94 1020.93 1021.70 1022.93 1023.25 1023.24 1023.57 1023.71 1024.31 1024.53 1024.76 1024.78 1024.57 1024.56 1024.43 1023.91 1023.12 1022.54 1022.75 1022.99 1023.08 1023.52 1023.93 1023.90
1014.69 1015.57 1016.44 1017.27 1018.23 1017.68 1017.51 1017.10 1017.57 1016.83 1018.05 1017.83 1018.01 1017.74 1017.87 1017.85 1018.33 1018.28 1018.08 1018.40 1019.56 1020.83 1021.57 1022.50 1023.03 1023.13 1023.13 1023.33 1023.37 1023.88 1024.10 1024.32 1024.63 1024.92 1024.82 1024.50 1024.19 1023.06 1022.61 1022.65 1022.58 1022.69 1023.53 1024.04 1024.10
1013.88 1014.86 1015.98 1016.60 1016.51 1017.15 1016.92 1016.77 1016.88 1016.99 1018.64 1017.91 1018.03 1017.98 1017.83 1018.31 1018.35 1018.42 1018.25 1018.35 1019.80 1020.83 1021.56 1022.91 1023.02 1022.99 1023.05 1022.96 1023.05 1023.60 1023.89 1024.17 1024.56 1024.99 1025.17 1024.80 1024.67 1022.58 1022.59 1022.38 1022.05 1022.48 1023.38 1023.95 1024.24
1012.94 1014.20 1015.47 1016.64 1016.73 1016.32 1016.35 1016.74 1017.39 1018.73 1018.45 1018.11 1018.13 1018.08 1018.29 1018.47 1018.51 1018.52 1018.48 1018.82 1020.14 1020.93 1021.77 1022.71 1022.76 1022.73 1022.86 1023.03 1023.11 1023.43 1024.01 1024.47 1024.85 1025.06 1025.52 1024.82 1024.51 1022.67 1022.30 1022.08 1022.05 1022.25 1022.97 1023.65 1024.03
1012.24 1013.32 1014.70 1015.87 1015.85 1016.07 1015.83 1017.00 1018.54 1018.87 1017.91 1018.38 1018.31 1018.19 1018.40 1018.73 1018.84 1018.71 1018.90 1019.48 1020.44 1021.42 1022.75 1023.09 1023.04 1022.84 1022.82 1023.19 1023.45 1023.51 1023.95 1024.75 1025.38 1025.48 1025.21 1024.64 1024.29 1021.38 1020.80 1020.86 1021.27 1022.01 1022.55 1023.06 1023.59
1011.59 1012.60 1014.03 1015.18 1015.09 1015.54 1015.38 1017.94 1018.78 1017.67 1018.01 1017.87 1018.34 1018.66 1018.77 1018.68 1019.03 1019.27 1019.40 1019.88 1020.15 1020.48 1022.13 1022.85 1023.43 1022.90 1022.86 1022.93 1022.99 1023.50 1023.57 1023.91 1025.03 1025.71 1024.94 1024.34 1022.95 1020.64 1020.48 1020.81 1020.95 1021.48 1022.20 1022.88 1023.34
1011.08 1012.69 1014.27 1014.65 1015.29 1015.47 1015.89 1018.33 1016.88 1017.09 1017.01 1017.62 1018.50 1019.02 1019.20 1018.80 1018.55 1019.41 1019.63 1019.70 1019.36 1019.87 1020.02 1021.59 1022.84 1023.06 1023.13 1023.04 1023.26 1023.61 1023.73 1023.50 1024.37 1026.01 1024.96 1022.98 1021.45 1020.15 1020.40 1020.79 1021.16 1021.55 1022.28 1022.81 1023.32
1010.57 1012.17 1014.15 1013.90 1015.53 1015.20 1017.21 1017.30 1016.86 1016.30 1016.33 1017.07 1016.94 1017.74 1018.67 1018.74 1018.78 1019.27 1019.47 1018.67 1018.86 1019.16 1019.02 1020.18 1022.38 1023.41 1023.47 1023.30 1023.39 1023.30 1023.37 1023.72 1024.04 1024.99 1024.48 1022.39 1021.16 1019.70 1020.02 1020.33 1021.30 1021.83 1022.09 1022.50 1023.11
1010.59 1012.53 1013.89 1014.20 1015.36 1015.86 1016.81 1016.83 1016.33 1015.88 1015.55 1016.33 1016.78 1017.28 1017.94 1018.17 1018.56 1018.96 1018.86 1018.52 1018.45 1019.27 1019.21 1019.83 1020.76 1023.95 1023.84 1023.41 1023.20 1023.62 1023.33 1023.48 1023.44 1023.64 1023.51 1022.30 1019.90 1018.23 1018.85 1019.62 1020.06 1020.57 1021.21 1022.11 1022.80
1009.83 1012.66 1014.32 1014.12 1016.06 1016.59 1016.73 1016.41 1015.72 1015.70 1015.87 1016.04 1015.96 1016.32 1017.10 1017.55 1018.11 1018.74 1018.28 1017.96 1017.87 1018.54 1019.28 1019.41 1020.93 1023.21 1023.46 1023.27 1023.13 1022.95 1022.73 1022.55 1022.77 1023.60 1023.19 1022.62 1019.34 1017.96 1018.17 1018.41 1019.19 1019.90 1020.41 1020.77 1021.36
1009.74 1013.38 1014.44 1014.76 1014.38 1015.86 1016.67 1016.17 1015.72 1015.68 1015.44 1015.62 1015.50 1015.87 1016.53 1016.89 1017.92 1018.20 1018.08 1018.09 1018.00 1018.51 1018.41 1018.99 1020.80 1022.92 1023.88 1023.98 1023.48 1023.04 1022.36 1022.13 1022.07 1022.26 1022.39 1021.69 1019.00 1018.02 1018.50 1019.09 1019.39 1019.81 1020.10 1020.87 1021.50
1009.75 1012.86 1014.94 1014.72 1013.73 1014.03 1015.12 1015.11 1015.24 1014.96 1014.79 1014.89 1015.27 1015.70 1016.13 1016.88 1017.56 1018.10 1018.38 1018.49 1018.35 1018.67 1018.68 1018.73 1020.10 1020.92 1021.65 1021.32 1021.28 1022.18 1021.69 1021.72 1021.47 1022.00 1021.46 1020.17 1018.51 1017.93 1018.15 1018.54 1018.87 1019.21 1019.42 1020.06 1020.50
1007.58 1010.23 1010.60 1012.17 1012.67 1012.87 1013.14 1013.49 1013.97 1014.39 1014.66 1014.57 1015.18 1014.94 1015.14 1016.86 1017.41 1017.95 1018.16 1018.86 1018.92 1019.00 1019.35 1019.77 1021.32 1021.81 1022.21 1021.99 1021.44 1021.01 1020.92 1020.83 1020.76 1020.04 1019.71 1018.37 1018.27 1016.90 1017.09 1017.40 1017.70 1018.43 1019.30 1019.87 1020.40
1005.25 1007.56 1009.80 1009.53 1011.01 1012.26 1012.05 1012.00 1012.09 1012.94 1013.22 1013.75 1013.91 1014.25 1015.27 1016.09 1015.86 1016.54 1017.05 1017.81 1017.99 1019.67 1020.10 1020.57 1022.26 1022.84 1023.52 1022.97 1022.05 1021.05 1020.44 1020.35 1020.15 1019.59 1018.90 1018.34 1017.46 1015.77 1015.98 1016.74 1017.54 1018.06 1018.62 1019.24 1019.53
1003.66 1004.76 1005.11 1008.30 1009.99 1010.93 1009.85 1009.68 1010.00 1011.06 1012.45 1012.47 1013.24 1014.23 1015.71 1016.09 1016.05 1016.31 1016.62 1016.72 1017.20 1018.24 1020.15 1021.19 1022.50 1023.58 1024.42 1023.53 1022.30 1021.11 1018.63 1019.02 1018.83 1018.19 1017.57 1017.45 1015.43 1015.32 1015.56 1016.17 1016.69 1017.31 1017.74 1018.33 1018.83
Thickness
5642 5645 5648 5652 5657 5660 5663 5667 5671 5674 5676 5679 5683 5685 5688 5691 5696 5695 5685 5682 5684 5686 5687 5686 5687 5683 5679 5666 5659 5657 5637 5621 5618 5616 5615 5608 5608 5604 5597 5597 5596 5594 5590 5594 5594
5636 5639 5642 5646 5650 5655 5658 5662 5666 5669 5672 5675 5679 5681 5683 5686 5688 5684 5682 5683 5685 5684 5684 5683 5680 5677 5662 5657 5649 5643 5623 5621 5615 5610 5610 5605 5602 5596 5598 5591 5594 5586 5585 5583 5580
5631 5632 5635 5639 5643 5648 5653 5657 5661 5665 5668 5671 5674 5678 5680 5683 5683 5678 5680 5682 5683 5683 5680 5679 5675 5670 5654 5645 5635 5631 5619 5613 5613 5609 5606 5602 5599 5593 5591 5590 5583 5576 5579 5578 5575
5624 5627 5630 5633 5637 5642 5647 5652 5656 5660 5664 5667 5670 5674 5678 5679 5676 5675 5676 5679 5682 5681 5678 5674 5669 5657 5640 5637 5634 5624 5616 5616 5611 5607 5605 5602 5597 5595 5589 5588 5575 5568 5569 5573 5570
5617 5621 5625 5628 5631 5636 5641 5646 5651 5654 5659 5662 5665 5669 5674 5672 5666 5670 5672 5676 5678 5677 5668 5669 5662 5650 5637 5635 5632 5621 5617 5613 5608 5606 5604 5602 5597 5593 5589 5581 5570 5567 5567 5564 5561
5611 5614 5617 5622 5626 5629 5634 5640 5646 5649 5653 5658 5661 5664 5667 5667 5663 5664 5668 5670 5671 5670 5661 5661 5661 5654 5636 5627 5626 5619 5614 5610 5608 5608 5606 5602 5598 5594 5590 5575 5571 5564 5560 5558 5556
5604 5607 5611 5615 5619 5623 5629 5634 5639 5644 5647 5652 5656 5658 5661 5658 5659 5660 5662 5663 5663 5664 5658 5656 5657 5654 5638 5625 5617 5617 5612 5610 5603 5605 5606 5601 5599 5595 5582 5574 5571 5562 5557 5555 5556
5596 5599 5605 5608 5612 5617 5622 5629 5633 5639 5644 5646 5650 5653 5651 5655 5656 5656 5656 5657 5658 5659 5653 5650 5650 5641 5633 5620 5610 5610 5600 5609 5608 5602 5605 5604 5604 5598 5581 5572 5569 5562 5556 5555 5553
5589 5593 5596 5601 5605 5609 5615 5623 5628 5634 5640 5641 5644 5648 5647 5649 5651 5649 5649 5649 5651 5651 5647 5647 5642 5626 5624 5609 5592 5584 5598 5589 5606 5597 5597 5600 5603 5600 5584 5574 5568 5559 5556 5551 5548
5579 5585 5588 5594 5597 5602 5609 5617 5624 5628 5634 5634 5636 5639 5642 5640 5644 5644 5643 5644 5645 5644 5641 5636 5620 5613 5599 5593 5603 5597 5587 5599 5605 5602 5596 5596 5601 5592 5590 5579 5567 5558 5554 5549 5546
5570 5574 5581 5585 5589 5594 5602 5608 5611 5617 5621 5626 5625 5631 5632 5635 5638 5639 5635 5639 5640 5632 5626 5616 5607 5592 5603 5599 5592 5573 5572 5569 5595 5594 5586 5586 5580 5592 5594 5585 5572 5561 5555 5549 5545
5562 5566 5570 5574 5578 5585 5591 5599 5608 5612 5615 5615 5616 5621 5623 5628 5631 5634 5633 5633 5630 5619 5619 5603 5592 5597 5590 5598 5597 5585 5579 5568 5582 5585 5578 5559 5583 5593 5593 5587 5575 5564 5557 5549 5545
5558 5557 5561 5563 5567 5574 5582 5592 5596 5605 5603 5610 5611 5616 5617 5623 5622 5625 5627 5627 5616 5613 5602 5601 5596 5586 5602 5602 5605 5598 5595 5587 5590 5587 5586 5576 5587 5583 5598 5588 5580 5576 5563 5551 5543
5552 5552 5552 5551 5552 5564 5575 5585 5588 5599 5566 5604 5600 5608 5613 5615 5617 5615 5617 5620 5607 5592 5590 5588 5589 5595 5601 5603 5603 5608 5597 5596 5596 5587 5586 5575 5579 5578 5591 5584 5586 5581 5565 5553 5545
5546 5546 5544 5546 5554 5557 5570 5577 5582 5590 5566 5591 5590 5600 5605 5606 5607 5610 5610 5614 5602 5594 5599 5592 5583 5592 5601 5604 5601 5601 5592 5593 5591 5581 5581 5585 5585 5594 5579 5595 5596 5586 5570 5557 5547
5543 5540 5536 5535 5542 5553 5560 5564 5567 5554 5557 5570 5579 5588 5594 5599 5601 5602 5605 5601 5591 5589 5581 5581 5585 5591 5594 5590 5593 5586 5588 5583 5572 5573 5564 5582 5578 5600 5595 5596 5597 5587 5575 5561 5553
5537 5535 5532 5530 5537 5542 5552 5550 5535 5536 5557 5553 5565 5580 5589 5586 5592 5597 5596 5588 5576 5570 5558 5577 5583 5583 5587 5585 5588 5591 5587 5568 5581 5558 5584 5565 5574 5608 5611 5598 5598 5590 5580 5568 5557
5531 5529 5524 5525 5531 5535 5543 5520 5510 5529 5537 5558 5563 5569 5582 5583 5584 5583 5583 5571 5582 5579 5541 5565 5578 5575 5584 5590 5590 5582 5590 5581 5588 5585 5599 5569 5590 5622 5600 5597 5595 5588 5580 5570 5561
5524 5513 5513 5518 5518 5524 5524 5490 5548 5527 5553 5551 5560 5561 5565 5577 5579 5579 5573 5571 5583 5574 5598 5569 5568 5570 5575 5579 5583 5584 5586 5584 5559 5490 5548 5588 5602 5610 5598 5594 5589 5585 5577 5570 5563
5514 5511 5502 5513 5503 5513 5493 5515 5521 5542 5544 5551 5570 5562 5546 5558 5570 5567 5561 5582 5590 5575 5594 5588 5564 5562 5567 5574 5576 5579 5576 5583 5560 5573 5584 5599 5605 5620 5611 5600 5587 5582 5578 5574 5565
5501 5493 5491 5497 5492 5491 5492 5500 5509 5531 5545 5549 5553 5535 5558 5558 5553 5558 5566 5584 5579 5567 5583 5577 5580 5548 5561 5563 5568 5567 5573 5569 5575 5577 5594 5603 5616 5616 5622 5608 5603 5596 5587 5576 5568
5487 5480 5470 5482 5469 5465 5478 5479 5517 5521 5526 5537 5550 5552 5552 5548 5549 5544 5568 5575 5567 5567 5580 5580 5563 5531 5568 5561 5564 5572 5579 5581 5588 5592 5561 5573 5610 5623 5620 5617 5607 5603 5596 5591 5582
5475 5451 5450 5462 5478 5469 5457 5466 5496 5508 5520 5530 5541 5551 5547 5551 5551 5555 5555 5557 5560 5566 5572 5573 5543 5509 5537 5548 5550 5565 5573 5580 5574 5572 5576 5579 5615 5614 5608 5605 5601 5602 5595 5588 5582
5456 5441 5431 5441 5461 5479 5463 5489 5487 5503 5519 5527 5532 5536 5540 5538 5521 5534 5546 5548 5554 5559 5570 5575 5561 5574 5590 5602 5573 5570 5570 5572 5589 5561 5579 5586 5622 5626 5617 5609 5609 5603 5602 5594 5591
5457 5448 5464 5464 5472 5476 5494 5486 5509 5491 5503 5515 5521 5539 5544 5521 5527 5517 5529 5535 5545 5554 5552 5552 5542 5537 5551 5553 5576 5582 5574 5572 5584 5599 5614 5626 5604 5628 5622 5617 5616 5610 5600 5593 5587
5462 5456 5450 5469 5472 5468 5485 5489 5512 5507 5505 5510 5528 5534 5530 5526 5556 5539 5537 5538 5554 5535 5541 5540 5513 5502 5513 5519 5541 5583 5574 5570 5578 5588 5583 5593 5602 5619 5625 5621 5613 5609 5602 5596 5595
5464 5475 5493 5472 5465 5462 5487 5509 5515 5526 5505 5519 5521 5515 5511 5524 5522 5522 5525 5534 5544 5540 5520 5517 5491 5514 5525 5471 5508 5549 5571 5569 5579 5581 5592 5609 5631 5625 5628 5614 5611 5608 5603 5602 5597